Location: Newark
(50.1751°N, 5.6239°W)
Time: 13:23:24
(UTC+00:00)

Nauka - Pass Details

Date: 18 September 2021
Orbit: 417 x 423 km, 51.6° (Epoch: 26 October)

Event Time Altitude Azimuth Distance (km) Brightness Sun altitude
Rises 20:21:22 0° 238° (WSW) 2,357 ? -18.1°
Reaches altitude 10° 20:23:29 10° 234° (SW) 1,497 ? -18.4°
Enters shadow 20:26:28 53° 181° (S) 523 ? -18.9°
